Las Cruces, NM

3:23 AM MDT on October 15, 2019 (GMT -0600)
Las Cruces International

Weather History for KLRU - September, 2019

Change the Weather History Date:

Friday, September 20, 2019

  Actual Average Record
Temperature  
Mean Temperature 76 °F -  
Max Temperature 89 °F 83 °F 93 °F (2005)
Min Temperature 63 °F 60 °F 51 °F (2002)
Cooling Degree Days 11    
Growing Degree Days 26 (Base 50)    
Moisture  
Dew Point 50 °F    
Average Humidity 44    
Maximum Humidity 83    
Minimum Humidity 17    
Precipitation  
Precipitation 0.00 in - - ()
Sea Level Pressure  
Sea Level Pressure 30.00 in    
Wind  
Wind Speed 5 mph (SW)    
Max Wind Speed 16 mph    
Max Gust Speed 26 mph    
Visibility 10 miles    
Events Thunderstorm    
Averages and records for this station are not official NWS values.
T = Trace of Precipitation, MM = Missing Value Source: NWS Daily Summary

Daily Weather History Graph

Daily Weather History Graph

Search for Another Location

Airport or City:

Astronomy

Sep. 20, 2019 Rise Set
Actual Time 6:54 AM MDT 7:07 PM MDT
Civil Twilight 6:30 AM MDT 7:31 PM MDT
Nautical Twilight 6:01 AM MDT 8:00 PM MDT
Astronomical Twilight 5:32 AM MDT 8:29 PM MDT
Moon 11:19 PM MDT (9/20) 12:42 PM MDT (9/20)
Length of Visible Light 13h 01m
Length of Day
12h 12m
Waning Gibbous, 64% of the Moon is Illuminated
Sep 20
Waning Gibbous
Sep 21
Last Quarter
Sep 28
New
Oct 5
First Quarter
Oct 13
Full

Hourly Weather History & Observations

Time (MDT) Temp. Dew Point Humidity Pressure Visibility Wind Dir Wind Speed Gust Speed Precip Events Conditions
12:15 AM 72.0 °F 54.3 °F 54% 29.97 in 10.0 mi ENE 3.5 mph - N/A   Overcast
12:35 AM 72.0 °F 55.0 °F 55% 29.96 in 10.0 mi ENE 4.6 mph - N/A   Overcast
12:55 AM 73.4 °F 54.5 °F 51% 29.97 in 10.0 mi East 4.6 mph - N/A   Mostly Cloudy
1:15 AM 72.7 °F 54.7 °F 53% 29.97 in 10.0 mi East 3.5 mph - N/A   Mostly Cloudy
1:35 AM 70.5 °F 55.4 °F 59% 29.97 in 10.0 mi East 3.5 mph - N/A   Mostly Cloudy
1:55 AM 69.1 °F 56.5 °F 64% 29.97 in 10.0 mi Calm Calm - N/A   Mostly Cloudy
2:15 AM 68.9 °F 56.8 °F 65% 29.98 in 10.0 mi West 3.5 mph - N/A   Mostly Cloudy
2:35 AM 70.0 °F 56.5 °F 62% 29.99 in 10.0 mi South 5.8 mph - N/A Thunderstorm Mostly Cloudy
2:55 AM 71.2 °F 55.6 °F 58% 29.99 in 10.0 mi SE 4.6 mph - N/A   Mostly Cloudy
3:15 AM 70.0 °F 55.4 °F 60% 29.98 in 10.0 mi SSE 5.8 mph - N/A   Mostly Cloudy
3:35 AM 68.9 °F 55.8 °F 63% 29.98 in 10.0 mi SE 3.5 mph - N/A   Scattered Clouds
3:55 AM 66.9 °F 56.7 °F 70% 29.98 in 10.0 mi Calm Calm - N/A   Scattered Clouds
4:15 AM 65.5 °F 56.7 °F 73% 29.99 in 10.0 mi Calm Calm - N/A   Clear
4:35 AM 66.2 °F 57.2 °F 73% 29.98 in 10.0 mi ESE 5.8 mph - N/A   Clear
4:55 AM 66.9 °F 58.1 °F 73% 29.98 in 10.0 mi East 6.9 mph - N/A   Clear
5:15 AM 66.2 °F 58.5 °F 76% 29.99 in 10.0 mi Calm Calm - N/A   Clear
5:35 AM 64.0 °F 57.9 °F 80% 29.99 in 10.0 mi Calm Calm - N/A   Scattered Clouds
5:55 AM 63.9 °F 58.6 °F 83% 29.99 in 10.0 mi Calm Calm - N/A   Mostly Cloudy
6:15 AM 64.9 °F 58.3 °F 79% 29.99 in 10.0 mi WSW 3.5 mph - N/A   Scattered Clouds
6:35 AM 64.0 °F 58.5 °F 82% 30.00 in 10.0 mi ESE 3.5 mph - N/A   Mostly Cloudy
6:55 AM 65.7 °F 58.1 °F 77% 30.00 in 10.0 mi Calm Calm - N/A   Mostly Cloudy
7:15 AM 64.9 °F 58.5 °F 79% 30.00 in 10.0 mi SE 4.6 mph - N/A   Mostly Cloudy
7:35 AM 67.1 °F 58.1 °F 73% 30.01 in 10.0 mi West 3.5 mph - N/A   Scattered Clouds
7:55 AM 67.3 °F 58.5 °F 73% 30.02 in 10.0 mi Calm Calm - N/A   Clear
8:15 AM 69.3 °F 57.7 °F 67% 30.03 in 10.0 mi Calm Calm - N/A   Clear
8:35 AM 71.1 °F 57.2 °F 61% 30.03 in 10.0 mi Calm Calm - N/A   Clear
8:55 AM 72.5 °F 57.2 °F 59% 30.04 in 10.0 mi SW 3.5 mph - N/A   Clear
9:15 AM 73.8 °F 57.6 °F 57% 30.04 in 10.0 mi Calm Calm - N/A   Clear
9:35 AM 75.6 °F 57.4 °F 53% 30.05 in 10.0 mi WSW 5.8 mph - N/A   Clear
9:55 AM 77.5 °F 57.0 °F 49% 30.06 in 10.0 mi SW 4.6 mph - N/A   Clear
10:15 AM 78.6 °F 55.4 °F 45% 30.06 in 10.0 mi WSW 6.9 mph - N/A   Clear
10:35 AM 80.1 °F 51.3 °F 37% 30.06 in 10.0 mi SW 8.1 mph - N/A   Clear
10:55 AM 81.5 °F 49.6 °F 33% 30.06 in 10.0 mi WSW 4.6 mph - N/A   Clear
11:15 AM 82.0 °F 49.1 °F 32% 30.05 in 10.0 mi SW 5.8 mph - N/A   Clear
11:35 AM 83.3 °F 46.4 °F 27% 30.05 in 10.0 mi West 6.9 mph - N/A   Clear
11:55 AM 85.1 °F 43.9 °F 24% 30.04 in 10.0 mi West 10.4 mph 17.3 mph N/A   Clear
12:15 PM 85.3 °F 44.8 °F 24% 30.04 in 10.0 mi West 15.0 mph 18.4 mph N/A   Clear
12:35 PM 86.2 °F 45.5 °F 24% 30.03 in 10.0 mi West 9.2 mph 21.9 mph N/A   Clear
12:55 PM 86.2 °F 45.1 °F 24% 30.03 in 10.0 mi West 11.5 mph 19.6 mph N/A   Clear
1:15 PM 86.7 °F 45.9 °F 24% 30.02 in 10.0 mi West 15.0 mph 21.9 mph N/A   Clear
1:35 PM 87.3 °F 46.2 °F 24% 30.02 in 10.0 mi West 9.2 mph - N/A   Clear
1:55 PM 88.3 °F 45.3 °F 22% 30.01 in 10.0 mi West 10.4 mph 20.7 mph N/A   Clear
2:15 PM 88.2 °F 43.5 °F 21% 30.00 in 10.0 mi West 11.5 mph 20.7 mph N/A   Clear
2:35 PM 89.1 °F 43.3 °F 20% 30.00 in 10.0 mi West 16.1 mph 21.9 mph N/A   Clear
2:55 PM 88.9 °F 42.6 °F 20% 29.99 in 10.0 mi SW 5.8 mph - N/A   Scattered Clouds
3:15 PM 89.6 °F 39.0 °F 17% 29.99 in 10.0 mi West 8.1 mph 18.4 mph N/A   Scattered Clouds
3:35 PM 89.1 °F 40.6 °F 18% 29.98 in 10.0 mi WSW 11.5 mph 19.6 mph N/A   Scattered Clouds
3:55 PM 88.3 °F 40.8 °F 19% 29.98 in 10.0 mi SSW 8.1 mph - N/A   Scattered Clouds
4:15 PM 89.6 °F 39.0 °F 17% 29.97 in 10.0 mi SW 11.5 mph 26.5 mph N/A   Scattered Clouds
4:35 PM 88.3 °F 41.5 °F 19% 29.96 in 10.0 mi WSW 11.5 mph 20.7 mph N/A   Scattered Clouds
4:55 PM 88.7 °F 40.6 °F 19% 29.96 in 10.0 mi West 13.8 mph 19.6 mph N/A   Clear
5:15 PM 88.5 °F 40.8 °F 19% 29.96 in 10.0 mi SW 11.5 mph 18.4 mph N/A   Scattered Clouds
5:35 PM 88.0 °F 41.0 °F 19% 29.96 in 10.0 mi WSW 10.4 mph 17.3 mph N/A   Clear
5:55 PM 87.3 °F 41.7 °F 20% 29.96 in 10.0 mi SW 6.9 mph - N/A   Clear
6:15 PM 86.7 °F 41.0 °F 20% 29.96 in 10.0 mi WSW 11.5 mph 17.3 mph N/A   Clear
6:35 PM 84.7 °F 41.0 °F 21% 29.96 in 10.0 mi SW 8.1 mph - N/A   Clear
6:55 PM 83.8 °F 41.4 °F 22% 29.96 in 10.0 mi WSW 5.8 mph - N/A   Clear
7:15 PM 81.0 °F 43.0 °F 26% 29.96 in 10.0 mi WSW 5.8 mph - N/A   Clear
7:35 PM 79.9 °F 43.2 °F 27% 29.96 in 10.0 mi SW 5.8 mph - N/A   Clear
7:55 PM 78.6 °F 43.5 °F 29% 29.98 in 10.0 mi SSW 4.6 mph - N/A   Clear
8:15 PM 77.2 °F 43.9 °F 31% 29.98 in 10.0 mi WSW 5.8 mph - N/A   Clear
8:35 PM 77.0 °F 44.1 °F 31% 29.99 in 10.0 mi WSW 6.9 mph - N/A   Clear
8:55 PM 75.2 °F 45.0 °F 34% 29.99 in 10.0 mi WSW 4.6 mph - N/A   Clear
9:15 PM 74.3 °F 45.0 °F 35% 30.00 in 10.0 mi WSW 4.6 mph - N/A   Clear
9:35 PM 76.6 °F 43.7 °F 31% 30.00 in 10.0 mi SW 8.1 mph - N/A   Clear
9:55 PM 75.7 °F 44.1 °F 32% 30.01 in 10.0 mi West 6.9 mph - N/A   Clear
10:20 PM 72.1 °F 46.0 °F 39% 30.02 in 10.0 mi SW 4.6 mph - N/A   Clear
10:35 PM 71.1 °F 47.1 °F 42% 30.02 in 10.0 mi SW 3.5 mph - N/A   Clear
10:55 PM 71.6 °F 46.9 °F 41% 30.02 in 10.0 mi WSW 4.6 mph - N/A   Clear
11:15 PM 70.9 °F 47.3 °F 43% 30.02 in 10.0 mi WSW 4.6 mph - N/A   Clear
11:35 PM 70.0 °F 48.2 °F 46% 30.02 in 10.0 mi WSW 8.1 mph - N/A   Clear
11:55 PM 72.5 °F 47.3 °F 41% 30.02 in 10.0 mi SW 8.1 mph - N/A   Clear